Wetterdaten: Samstag, 13.12.2014
Datum Zeit Temperatur Luftfeuchte Luftdruck Regen Wind Richtung Richtung Sonnenschein ET UV Solar Taupunkt Windchill Windben
13.12.2014 00:00 5,8 C 93 % 1004,0 hPa 0,0 l/m 2,9 km/h (1 Bft) W 273 0 min 0,000 mm 0,0 UV-I 0 W/m 4,8 C 5,8 C 8,0 km/h (2 Bft)
13.12.2014 00:05 5,8 C 93 % 1004,1 hPa 0,2 l/m 1,6 km/h (1 Bft) W 269 0 min 0,000 mm 0,0 UV-I 0 W/m 4,8 C 5,8 C 8,0 km/h (2 Bft)
13.12.2014 00:10 5,7 C 93 % 1004,2 hPa 0,0 l/m 2,0 km/h (1 Bft) W-SW 253 0 min 0,000 mm 0,0 UV-I 0 W/m 4,7 C 5,7 C 4,8 km/h (1 Bft)
13.12.2014 00:15 5,7 C 93 % 1004,2 hPa 0,0 l/m 2,5 km/h (1 Bft) W 271 0 min 0,000 mm 0,0 UV-I 0 W/m 4,7 C 5,7 C 6,4 km/h (2 Bft)
13.12.2014 00:20 5,6 C 93 % 1004,3 hPa 0,0 l/m 3,5 km/h (1 Bft) W 263 0 min 0,000 mm 0,0 UV-I 0 W/m 4,6 C 5,6 C 11,3 km/h (2 Bft)
13.12.2014 00:25 5,6 C 94 % 1004,4 hPa 0,0 l/m 4,4 km/h (1 Bft) W 259 0 min 0,000 mm 0,0 UV-I 0 W/m 4,7 C 5,6 C 12,9 km/h (3 Bft)
13.12.2014 00:30 5,6 C 94 % 1004,5 hPa 0,0 l/m 3,6 km/h (1 Bft) W-NW 286 0 min 0,000 mm 0,0 UV-I 0 W/m 4,7 C 5,6 C 8,0 km/h (2 Bft)
13.12.2014 00:35 5,6 C 94 % 1004,6 hPa 0,0 l/m 4,5 km/h (1 Bft) W-NW 296 0 min 0,000 mm 0,0 UV-I 0 W/m 4,7 C 5,6 C 11,3 km/h (2 Bft)
13.12.2014 00:40 5,6 C 94 % 1004,6 hPa 0,0 l/m 3,5 km/h (1 Bft) W-NW 298 0 min 0,000 mm 0,0 UV-I 0 W/m 4,7 C 5,6 C 6,4 km/h (2 Bft)
13.12.2014 00:45 5,6 C 94 % 1004,7 hPa 0,2 l/m 4,8 km/h (1 Bft) W 270 0 min 0,000 mm 0,0 UV-I 0 W/m 4,7 C 5,6 C 9,7 km/h (2 Bft)
13.12.2014 00:50 5,6 C 93 % 1004,8 hPa 0,0 l/m 4,5 km/h (1 Bft) W 271 0 min 0,000 mm 0,0 UV-I 0 W/m 4,6 C 5,6 C 12,9 km/h (3 Bft)
13.12.2014 00:55 5,5 C 93 % 1005,0 hPa 0,0 l/m 5,1 km/h (1 Bft) W-NW 284 0 min 0,000 mm 0,0 UV-I 0 W/m 4,5 C 5,5 C 11,3 km/h (2 Bft)
13.12.2014 01:00 5,4 C 93 % 1004,9 hPa 0,2 l/m 7,7 km/h (2 Bft) SW 235 0 min 0,000 mm 0,0 UV-I 0 W/m 4,4 C 4,3 C 16,1 km/h (3 Bft)
13.12.2014 01:05 5,4 C 93 % 1004,9 hPa 0,0 l/m 7,4 km/h (2 Bft) W 262 0 min 0,000 mm 0,0 UV-I 0 W/m 4,4 C 4,5 C 16,1 km/h (3 Bft)
13.12.2014 01:10 5,4 C 92 % 1005,0 hPa 0,0 l/m 6,4 km/h (2 Bft) W-NW 298 0 min 0,000 mm 0,0 UV-I 0 W/m 4,2 C 5,4 C 12,9 km/h (3 Bft)
13.12.2014 01:15 5,4 C 92 % 1005,1 hPa 0,0 l/m 5,1 km/h (1 Bft) NW 320 0 min 0,000 mm 0,0 UV-I 0 W/m 4,2 C 5,4 C 11,3 km/h (2 Bft)
13.12.2014 01:20 5,3 C 92 % 1005,1 hPa 0,2 l/m 4,4 km/h (1 Bft) W 271 0 min 0,000 mm 0,0 UV-I 0 W/m 4,1 C 5,3 C 9,7 km/h (2 Bft)
13.12.2014 01:25 5,3 C 93 % 1005,1 hPa 0,0 l/m 4,9 km/h (1 Bft) W 279 0 min 0,000 mm 0,0 UV-I 0 W/m 4,3 C 5,3 C 12,9 km/h (3 Bft)
13.12.2014 01:30 5,3 C 93 % 1005,3 hPa 0,2 l/m 6,4 km/h (2 Bft) W 281 0 min 0,000 mm 0,0 UV-I 0 W/m 4,3 C 5,3 C 12,9 km/h (3 Bft)
13.12.2014 01:35 5,3 C 92 % 1005,4 hPa 0,0 l/m 7,2 km/h (2 Bft) W 275 0 min 0,000 mm 0,0 UV-I 0 W/m 4,1 C 4,6 C 16,1 km/h (3 Bft)
13.12.2014 01:40 5,3 C 92 % 1005,4 hPa 0,0 l/m 5,5 km/h (1 Bft) W-NW 291 0 min 0,000 mm 0,0 UV-I 0 W/m 4,1 C 5,3 C 12,9 km/h (3 Bft)
13.12.2014 01:45 5,2 C 92 % 1005,4 hPa 0,2 l/m 4,7 km/h (1 Bft) W-NW 288 0 min 0,000 mm 0,0 UV-I 0 W/m 4,0 C 5,2 C 11,3 km/h (2 Bft)
13.12.2014 01:50 5,2 C 92 % 1005,4 hPa 0,0 l/m 5,7 km/h (1 Bft) W-NW 286 0 min 0,000 mm 0,0 UV-I 0 W/m 4,0 C 5,2 C 11,3 km/h (2 Bft)
13.12.2014 01:55 5,1 C 92 % 1005,6 hPa 0,2 l/m 7,4 km/h (2 Bft) W-SW 257 0 min 0,000 mm 0,0 UV-I 0 W/m 3,9 C 4,2 C 14,5 km/h (3 Bft)
13.12.2014 02:00 5,1 C 92 % 1005,6 hPa 0,0 l/m 6,6 km/h (2 Bft) W 271 0 min 0,000 mm 0,0 UV-I 0 W/m 3,9 C 4,9 C 11,3 km/h (2 Bft)
13.12.2014 02:05 5,0 C 92 % 1005,7 hPa 0,0 l/m 6,0 km/h (2 Bft) W-NW 286 0 min 0,000 mm 0,0 UV-I 0 W/m 3,8 C 5,0 C 12,9 km/h (3 Bft)
13.12.2014 02:10 5,0 C 92 % 1005,8 hPa 0,0 l/m 6,1 km/h (2 Bft) W-NW 287 0 min 0,000 mm 0,0 UV-I 0 W/m 3,8 C 5,0 C 11,3 km/h (2 Bft)
13.12.2014 02:15 4,9 C 92 % 1005,8 hPa 0,0 l/m 5,1 km/h (1 Bft) W 275 0 min 0,000 mm 0,0 UV-I 0 W/m 3,7 C 4,9 C 9,7 km/h (2 Bft)
13.12.2014 02:20 4,9 C 93 % 1005,8 hPa 0,2 l/m 4,6 km/h (1 Bft) W-SW 244 0 min 0,000 mm 0,0 UV-I 0 W/m 3,9 C 4,9 C 11,3 km/h (2 Bft)
13.12.2014 02:25 4,9 C 93 % 1006,0 hPa 0,0 l/m 6,3 km/h (2 Bft) W-SW 244 0 min 0,000 mm 0,0 UV-I 0 W/m 3,9 C 4,9 C 14,5 km/h (3 Bft)
13.12.2014 02:30 4,9 C 93 % 1006,0 hPa 0,0 l/m 5,7 km/h (1 Bft) W 269 0 min 0,000 mm 0,0 UV-I 0 W/m 3,9 C 4,9 C 11,3 km/h (2 Bft)
13.12.2014 02:35 4,9 C 93 % 1006,1 hPa 0,2 l/m 6,6 km/h (2 Bft) W 262 0 min 0,000 mm 0,0 UV-I 0 W/m 3,9 C 4,7 C 12,9 km/h (3 Bft)
13.12.2014 02:40 4,9 C 93 % 1006,1 hPa 0,0 l/m 5,9 km/h (2 Bft) W 265 0 min 0,000 mm 0,0 UV-I 0 W/m 3,9 C 4,9 C 11,3 km/h (2 Bft)
13.12.2014 02:45 4,9 C 93 % 1006,1 hPa 0,2 l/m 4,9 km/h (1 Bft) W-NW 287 0 min 0,000 mm 0,0 UV-I 0 W/m 3,9 C 4,9 C 9,7 km/h (2 Bft)
13.12.2014 02:50 4,8 C 93 % 1006,2 hPa 0,0 l/m 5,5 km/h (1 Bft) NW 313 0 min 0,000 mm 0,0 UV-I 0 W/m 3,8 C 4,8 C 12,9 km/h (3 Bft)
13.12.2014 02:55 4,8 C 93 % 1006,2 hPa 0,0 l/m 4,8 km/h (1 Bft) W-NW 286 0 min 0,000 mm 0,0 UV-I 0 W/m 3,8 C 4,8 C 9,7 km/h (2 Bft)
13.12.2014 03:00 4,8 C 93 % 1006,2 hPa 0,0 l/m 5,3 km/h (1 Bft) W-SW 248 0 min 0,000 mm 0,0 UV-I 0 W/m 3,8 C 4,8 C 9,7 km/h (2 Bft)
13.12.2014 03:05 4,8 C 93 % 1006,4 hPa 0,2 l/m 4,6 km/h (1 Bft) W 275 0 min 0,000 mm 0,0 UV-I 0 W/m 3,8 C 4,8 C 9,7 km/h (2 Bft)
13.12.2014 03:10 4,8 C 93 % 1006,4 hPa 0,0 l/m 3,0 km/h (1 Bft) W-NW 297 0 min 0,000 mm 0,0 UV-I 0 W/m 3,8 C 4,8 C 9,7 km/h (2 Bft)
13.12.2014 03:15 4,7 C 93 % 1006,4 hPa 0,0 l/m 4,7 km/h (1 Bft) W 267 0 min 0,000 mm 0,0 UV-I 0 W/m 3,7 C 4,7 C 11,3 km/h (2 Bft)
13.12.2014 03:20 4,7 C 93 % 1006,4 hPa 0,0 l/m 4,2 km/h (1 Bft) W-SW 258 0 min 0,000 mm 0,0 UV-I 0 W/m 3,7 C 4,7 C 8,0 km/h (2 Bft)
13.12.2014 03:25 4,8 C 93 % 1006,5 hPa 0,0 l/m 4,0 km/h (1 Bft) W-NW 284 0 min 0,000 mm 0,0 UV-I 0 W/m 3,8 C 4,8 C 9,7 km/h (2 Bft)
13.12.2014 03:30 4,7 C 93 % 1006,5 hPa 0,0 l/m 4,3 km/h (1 Bft) W 269 0 min 0,000 mm 0,0 UV-I 0 W/m 3,7 C 4,7 C 9,7 km/h (2 Bft)
13.12.2014 03:35 4,7 C 93 % 1006,6 hPa 0,0 l/m 5,2 km/h (1 Bft) W 281 0 min 0,000 mm 0,0 UV-I 0 W/m 3,7 C 4,7 C 11,3 km/h (2 Bft)
13.12.2014 03:40 4,7 C 93 % 1006,7 hPa 0,0 l/m 4,1 km/h (1 Bft) W-NW 294 0 min 0,000 mm 0,0 UV-I 0 W/m 3,7 C 4,7 C 9,7 km/h (2 Bft)
13.12.2014 03:45 4,7 C 93 % 1006,7 hPa 0,0 l/m 4,7 km/h (1 Bft) W 281 0 min 0,000 mm 0,0 UV-I 0 W/m 3,7 C 4,7 C 11,3 km/h (2 Bft)
13.12.2014 03:50 4,7 C 93 % 1006,6 hPa 0,2 l/m 3,5 km/h (1 Bft) W 275 0 min 0,000 mm 0,0 UV-I 0 W/m 3,7 C 4,7 C 8,0 km/h (2 Bft)
13.12.2014 03:55 4,7 C 93 % 1006,6 hPa 0,0 l/m 2,5 km/h (1 Bft) W 263 0 min 0,000 mm 0,0 UV-I 0 W/m 3,7 C 4,7 C 8,0 km/h (2 Bft)
13.12.2014 04:00 4,7 C 93 % 1006,6 hPa 0,0 l/m 1,6 km/h (1 Bft) W-SW 246 0 min 0,000 mm 0,0 UV-I 0 W/m 3,7 C 4,7 C 6,4 km/h (2 Bft)
13.12.2014 04:05 4,6 C 93 % 1006,6 hPa 0,0 l/m 0,4 km/h (0 Bft) W-NW 296 0 min 0,000 mm 0,0 UV-I 0 W/m 3,6 C 4,6 C 3,2 km/h (1 Bft)
13.12.2014 04:10 4,6 C 94 % 1006,6 hPa 0,0 l/m 1,5 km/h (1 Bft) W-NW 285 0 min 0,000 mm 0,0 UV-I 0 W/m 3,7 C 4,6 C 4,8 km/h (1 Bft)
13.12.2014 04:15 4,6 C 93 % 1006,6 hPa 0,0 l/m 1,4 km/h (1 Bft) W 278 0 min 0,000 mm 0,0 UV-I 0 W/m 3,6 C 4,6 C 6,4 km/h (2 Bft)
13.12.2014 04:20 4,6 C 93 % 1006,7 hPa 0,0 l/m 2,1 km/h (1 Bft) W 268 0 min 0,000 mm 0,0 UV-I 0 W/m 3,6 C 4,6 C 6,4 km/h (2 Bft)
13.12.2014 04:25 4,5 C 93 % 1006,7 hPa 0,0 l/m 3,2 km/h (1 Bft) W 271 0 min 0,000 mm 0,0 UV-I 0 W/m 3,5 C 4,5 C 8,0 km/h (2 Bft)
13.12.2014 04:30 4,5 C 93 % 1006,7 hPa 0,0 l/m 1,8 km/h (1 Bft) W-SW 237 0 min 0,000 mm 0,0 UV-I 0 W/m 3,5 C 4,5 C 4,8 km/h (1 Bft)
13.12.2014 04:35 4,5 C 93 % 1006,8 hPa 0,0 l/m 2,4 km/h (1 Bft) W-NW 289 0 min 0,000 mm 0,0 UV-I 0 W/m 3,5 C 4,5 C 6,4 km/h (2 Bft)
13.12.2014 04:40 4,5 C 93 % 1006,8 hPa 0,0 l/m 2,1 km/h (1 Bft) W-NW 296 0 min 0,000 mm 0,0 UV-I 0 W/m 3,5 C 4,5 C 6,4 km/h (2 Bft)
13.12.2014 04:45 4,4 C 93 % 1006,9 hPa 0,0 l/m 3,4 km/h (1 Bft) W-NW 288 0 min 0,000 mm 0,0 UV-I 0 W/m 3,4 C 4,4 C 9,7 km/h (2 Bft)
13.12.2014 04:50 4,4 C 93 % 1007,0 hPa 0,0 l/m 3,7 km/h (1 Bft) W 281 0 min 0,000 mm 0,0 UV-I 0 W/m 3,4 C 4,4 C 8,0 km/h (2 Bft)
13.12.2014 04:55 4,4 C 93 % 1007,0 hPa 0,0 l/m 3,7 km/h (1 Bft) W-NW 297 0 min 0,000 mm 0,0 UV-I 0 W/m 3,4 C 4,4 C 8,0 km/h (2 Bft)
13.12.2014 05:00 4,4 C 93 % 1007,1 hPa 0,0 l/m 1,9 km/h (1 Bft) W-NW 283 0 min 0,000 mm 0,0 UV-I 0 W/m 3,4 C 4,4 C 6,4 km/h (2 Bft)
13.12.2014 05:05 4,4 C 93 % 1007,0 hPa 0,0 l/m 1,0 km/h (0 Bft) W 263 0 min 0,000 mm 0,0 UV-I 0 W/m 3,4 C 4,4 C 4,8 km/h (1 Bft)
13.12.2014 05:10 4,4 C 93 % 1007,1 hPa 0,0 l/m 0,2 km/h (0 Bft) W 263 0 min 0,000 mm 0,0 UV-I 0 W/m 3,4 C 4,4 C 1,6 km/h (1 Bft)
13.12.2014 05:15 4,4 C 93 % 1007,2 hPa 0,0 l/m 0,1 km/h (0 Bft) W 263 0 min 0,000 mm 0,0 UV-I 0 W/m 3,4 C 4,4 C 1,6 km/h (1 Bft)
13.12.2014 05:20 4,4 C 93 % 1007,2 hPa 0,0 l/m 0,2 km/h (0 Bft) W 278 0 min 0,000 mm 0,0 UV-I 0 W/m 3,4 C 4,4 C 3,2 km/h (1 Bft)
13.12.2014 05:25 4,3 C 93 % 1007,2 hPa 0,0 l/m 0,9 km/h (0 Bft) W 268 0 min 0,000 mm 0,0 UV-I 0 W/m 3,3 C 4,3 C 4,8 km/h (1 Bft)
13.12.2014 05:30 4,3 C 93 % 1007,4 hPa 0,0 l/m 1,5 km/h (1 Bft) W 269 0 min 0,000 mm 0,0 UV-I 0 W/m 3,3 C 4,3 C 6,4 km/h (2 Bft)
13.12.2014 05:35 4,3 C 93 % 1007,4 hPa 0,0 l/m 1,2 km/h (1 Bft) W 259 0 min 0,000 mm 0,0 UV-I 0 W/m 3,3 C 4,3 C 4,8 km/h (1 Bft)
13.12.2014 05:40 4,3 C 94 % 1007,5 hPa 0,0 l/m 1,5 km/h (1 Bft) W 281 0 min 0,000 mm 0,0 UV-I 0 W/m 3,4 C 4,3 C 4,8 km/h (1 Bft)
13.12.2014 05:45 4,3 C 94 % 1007,5 hPa 0,0 l/m 1,2 km/h (1 Bft) W 267 0 min 0,000 mm 0,0 UV-I 0 W/m 3,4 C 4,3 C 6,4 km/h (2 Bft)
13.12.2014 05:50 4,3 C 94 % 1007,5 hPa 0,0 l/m 0,8 km/h (0 Bft) W-NW 284 0 min 0,000 mm 0,0 UV-I 0 W/m 3,4 C 4,3 C 4,8 km/h (1 Bft)
13.12.2014 05:55 4,2 C 94 % 1007,4 hPa 0,2 l/m 1,9 km/h (1 Bft) W-NW 286 0 min 0,000 mm 0,0 UV-I 0 W/m 3,3 C 4,2 C 6,4 km/h (2 Bft)
13.12.2014 06:00 4,2 C 94 % 1007,5 hPa 0,0 l/m 0,9 km/h (0 Bft) SW 225 0 min 0,000 mm 0,0 UV-I 0 W/m 3,3 C 4,2 C 4,8 km/h (1 Bft)
13.12.2014 06:05 4,2 C 94 % 1007,6 hPa 0,0 l/m 0,9 km/h (0 Bft) W-NW 282 0 min 0,000 mm 0,0 UV-I 0 W/m 3,3 C 4,2 C 4,8 km/h (1 Bft)
13.12.2014 06:10 4,2 C 94 % 1007,6 hPa 0,0 l/m 1,1 km/h (1 Bft) W 279 0 min 0,000 mm 0,0 UV-I 0 W/m 3,3 C 4,2 C 6,4 km/h (2 Bft)
13.12.2014 06:15 4,2 C 94 % 1007,5 hPa 0,0 l/m 3,8 km/h (1 Bft) W-SW 242 0 min 0,000 mm 0,0 UV-I 0 W/m 3,3 C 4,2 C 8,0 km/h (2 Bft)
13.12.2014 06:20 4,2 C 94 % 1007,6 hPa 0,0 l/m 2,2 km/h (1 Bft) W-NW 288 0 min 0,000 mm 0,0 UV-I 0 W/m 3,3 C 4,2 C 6,4 km/h (2 Bft)
13.12.2014 06:25 4,1 C 94 % 1007,6 hPa 0,0 l/m 0,9 km/h (0 Bft) W-NW 297 0 min 0,000 mm 0,0 UV-I 0 W/m 3,2 C 4,1 C 4,8 km/h (1 Bft)
13.12.2014 06:30 4,1 C 94 % 1007,7 hPa 0,0 l/m 1,0 km/h (0 Bft) W 277 0 min 0,000 mm 0,0 UV-I 0 W/m 3,2 C 4,1 C 4,8 km/h (1 Bft)
13.12.2014 06:35 4,1 C 94 % 1007,7 hPa 0,0 l/m 0,9 km/h (0 Bft) W 261 0 min 0,000 mm 0,0 UV-I 0 W/m 3,2 C 4,1 C 6,4 km/h (2 Bft)
13.12.2014 06:40 4,1 C 94 % 1007,8 hPa 0,0 l/m 0,7 km/h (0 Bft) W-SW 253 0 min 0,000 mm 0,0 UV-I 0 W/m 3,2 C 4,1 C 4,8 km/h (1 Bft)
13.12.2014 06:45 4,1 C 94 % 1007,8 hPa 0,0 l/m 0,1 km/h (0 Bft) W-NW 288 0 min 0,000 mm 0,0 UV-I 0 W/m 3,2 C 4,1 C 3,2 km/h (1 Bft)
13.12.2014 06:50 4,1 C 94 % 1007,9 hPa 0,0 l/m 0,1 km/h (0 Bft) W-NW 288 0 min 0,000 mm 0,0 UV-I 0 W/m 3,2 C 4,1 C 3,2 km/h (1 Bft)
13.12.2014 06:55 4,0 C 94 % 1007,8 hPa 0,2 l/m 0,0 km/h (0 Bft) W-NW 288 0 min 0,000 mm 0,0 UV-I 0 W/m 3,1 C 4,0 C 0,0 km/h (0 Bft)
13.12.2014 07:00 4,0 C 94 % 1007,9 hPa 0,0 l/m 0,0 km/h (0 Bft) W-NW 288 0 min 0,000 mm 0,0 UV-I 0 W/m 3,1 C 4,0 C 1,6 km/h (1 Bft)
13.12.2014 07:05 3,9 C 94 % 1008,0 hPa 0,0 l/m 0,0 km/h (0 Bft) W-NW 288 0 min 0,000 mm 0,0 UV-I 0 W/m 3,0 C 3,9 C 0,0 km/h (0 Bft)
13.12.2014 07:10 3,9 C 94 % 1008,1 hPa 0,0 l/m 0,0 km/h (0 Bft) W-NW 288 0 min 0,000 mm 0,0 UV-I 0 W/m 3,0 C 3,9 C 0,0 km/h (0 Bft)
13.12.2014 07:15 3,9 C 94 % 1008,2 hPa 0,0 l/m 0,0 km/h (0 Bft) W-NW 288 0 min 0,000 mm 0,0 UV-I 0 W/m 3,0 C 3,9 C 0,0 km/h (0 Bft)
13.12.2014 07:20 3,9 C 94 % 1008,1 hPa 0,0 l/m 0,0 km/h (0 Bft) W-NW 288 0 min 0,000 mm 0,0 UV-I 0 W/m 3,0 C 3,9 C 0,0 km/h (0 Bft)
13.12.2014 07:25 3,9 C 94 % 1008,1 hPa 0,0 l/m 0,0 km/h (0 Bft) W-NW 288 0 min 0,000 mm 0,0 UV-I 0 W/m 3,0 C 3,9 C 0,0 km/h (0 Bft)
13.12.2014 07:30 3,9 C 94 % 1008,2 hPa 0,0 l/m 0,0 km/h (0 Bft) W-NW 288 0 min 0,000 mm 0,0 UV-I 0 W/m 3,0 C 3,9 C 0,0 km/h (0 Bft)
13.12.2014 07:35 3,9 C 94 % 1008,2 hPa 0,0 l/m 0,0 km/h (0 Bft) W-NW 288 0 min 0,000 mm 0,0 UV-I 0 W/m 3,0 C 3,9 C 0,0 km/h (0 Bft)
13.12.2014 07:40 3,8 C 94 % 1008,3 hPa 0,0 l/m 0,0 km/h (0 Bft) W-NW 288 0 min 0,000 mm 0,0 UV-I 0 W/m 2,9 C 3,8 C 0,0 km/h (0 Bft)
13.12.2014 07:45 3,8 C 94 % 1008,4 hPa 0,0 l/m 0,0 km/h (0 Bft) W-NW 288 0 min 0,000 mm 0,0 UV-I 0 W/m 2,9 C 3,8 C 0,0 km/h (0 Bft)
13.12.2014 07:50 3,8 C 94 % 1008,5 hPa 0,0 l/m 0,0 km/h (0 Bft) W-NW 288 0 min 0,000 mm 0,0 UV-I 0 W/m 2,9 C 3,8 C 0,0 km/h (0 Bft)
13.12.2014 07:55 3,8 C 94 % 1008,5 hPa 0,0 l/m 0,0 km/h (0 Bft) W-NW 288 0 min 0,000 mm 0,0 UV-I 0 W/m 2,9 C 3,8 C 0,0 km/h (0 Bft)
13.12.2014 08:00 3,8 C 94 % 1008,5 hPa 0,0 l/m 0,0 km/h (0 Bft) W-NW 288 0 min 0,000 mm 0,0 UV-I 0 W/m 2,9 C 3,8 C 0,0 km/h (0 Bft)
13.12.2014 08:05 3,8 C 94 % 1008,5 hPa 0,2 l/m 0,0 km/h (0 Bft) W-NW 288 0 min 0,000 mm 0,0 UV-I 0 W/m 2,9 C 3,8 C 0,0 km/h (0 Bft)
13.12.2014 08:10 3,8 C 94 % 1008,6 hPa 0,0 l/m 0,0 km/h (0 Bft) W-NW 288 0 min 0,000 mm 0,0 UV-I 0 W/m 2,9 C 3,8 C 0,0 km/h (0 Bft)
13.12.2014 08:15 3,8 C 95 % 1008,7 hPa 0,0 l/m 0,0 km/h (0 Bft) W-NW 288 0 min 0,000 mm 0,0 UV-I 0 W/m 3,1 C 3,8 C 0,0 km/h (0 Bft)
13.12.2014 08:20 3,8 C 95 % 1008,7 hPa 0,0 l/m 0,0 km/h (0 Bft) W-NW 288 0 min 0,000 mm 0,0 UV-I 0 W/m 3,1 C 3,8 C 0,0 km/h (0 Bft)
13.12.2014 08:25 3,8 C 94 % 1008,7 hPa 0,0 l/m 0,0 km/h (0 Bft) W-NW 288 0 min 0,000 mm 0,0 UV-I 0 W/m 2,9 C 3,8 C 0,0 km/h (0 Bft)
13.12.2014 08:30 3,8 C 94 % 1008,8 hPa 0,0 l/m 0,0 km/h (0 Bft) W-NW 288 0 min 0,000 mm 0,0 UV-I 0 W/m 2,9 C 3,8 C 0,0 km/h (0 Bft)
13.12.2014 08:35 3,8 C 95 % 1008,9 hPa 0,0 l/m 0,0 km/h (0 Bft) W-NW 288 0 min 0,000 mm 0,0 UV-I 0 W/m 3,1 C 3,8 C 0,0 km/h (0 Bft)
13.12.2014 08:40 3,8 C 95 % 1009,0 hPa 0,0 l/m 0,0 km/h (0 Bft) W-NW 288 0 min 0,000 mm 0,0 UV-I 1 W/m 3,1 C 3,8 C 0,0 km/h (0 Bft)
13.12.2014 08:45 3,8 C 95 % 1009,0 hPa 0,2 l/m 0,0 km/h (0 Bft) W-NW 288 0 min 0,000 mm 0,0 UV-I 6 W/m 3,1 C 3,8 C 0,0 km/h (0 Bft)
13.12.2014 08:50 3,8 C 95 % 1009,1 hPa 0,0 l/m 0,0 km/h (0 Bft) W-NW 288 0 min 0,000 mm 0,0 UV-I 8 W/m 3,1 C 3,8 C 0,0 km/h (0 Bft)
13.12.2014 08:55 3,8 C 95 % 1009,1 hPa 0,0 l/m 0,0 km/h (0 Bft) W-NW 288 0 min 0,000 mm 0,0 UV-I 10 W/m 3,1 C 3,8 C 0,0 km/h (0 Bft)
13.12.2014 09:00 3,7 C 95 % 1009,2 hPa 0,0 l/m 0,0 km/h (0 Bft) W-NW 288 0 min 0,000 mm 0,0 UV-I 12 W/m 3,0 C 3,7 C 0,0 km/h (0 Bft)
13.12.2014 09:05 3,7 C 95 % 1009,2 hPa 0,0 l/m 0,0 km/h (0 Bft) W-NW 288 0 min 0,000 mm 0,0 UV-I 12 W/m 3,0 C 3,7 C 0,0 km/h (0 Bft)
13.12.2014 09:10 3,7 C 95 % 1009,3 hPa 0,0 l/m 0,0 km/h (0 Bft) W-NW 288 0 min 0,000 mm 0,0 UV-I 12 W/m 3,0 C 3,7 C 0,0 km/h (0 Bft)
13.12.2014 09:15 3,7 C 95 % 1009,4 hPa 0,2 l/m 0,0 km/h (0 Bft) W-NW 288 0 min 0,000 mm 0,0 UV-I 13 W/m 3,0 C 3,7 C 0,0 km/h (0 Bft)
13.12.2014 09:20 3,7 C 95 % 1009,4 hPa 0,0 l/m 0,0 km/h (0 Bft) W-NW 288 0 min 0,000 mm 0,0 UV-I 14 W/m 3,0 C 3,7 C 0,0 km/h (0 Bft)
13.12.2014 09:26 3,7 C 95 % 1009,5 hPa 0,0 l/m 0,5 km/h (0 Bft) W-NW 283 0 min 0,000 mm 0,0 UV-I 15 W/m 3,0 C 3,7 C 4,8 km/h (1 Bft)
13.12.2014 09:30 3,7 C 95 % 1009,6 hPa 0,0 l/m 0,0 km/h (0 Bft) W-NW 283 0 min 0,000 mm 0,0 UV-I 14 W/m 3,0 C 3,7 C 1,6 km/h (1 Bft)
13.12.2014 09:35 3,7 C 95 % 1009,9 hPa 0,0 l/m 0,0 km/h (0 Bft) W-NW 283 0 min 0,000 mm 0,0 UV-I 14 W/m 3,0 C 3,7 C 1,6 km/h (1 Bft)
13.12.2014 09:40 3,7 C 95 % 1009,8 hPa 0,2 l/m 0,6 km/h (0 Bft) W-NW 283 0 min 0,000 mm 0,0 UV-I 14 W/m 3,0 C 3,7 C 3,2 km/h (1 Bft)
13.12.2014 09:45 3,7 C 95 % 1009,8 hPa 0,0 l/m 0,1 km/h (0 Bft) W-NW 283 0 min 0,000 mm 0,0 UV-I 17 W/m 3,0 C 3,7 C 1,6 km/h (1 Bft)
13.12.2014 09:50 3,7 C 95 % 1009,9 hPa 0,0 l/m 0,3 km/h (0 Bft) W-NW 283 0 min 0,000 mm 0,0 UV-I 19 W/m 3,0 C 3,7 C 3,2 km/h (1 Bft)
13.12.2014 09:55 3,7 C 95 % 1009,9 hPa 0,0 l/m 0,3 km/h (0 Bft) W-NW 283 0 min 0,000 mm 0,0 UV-I 21 W/m 3,0 C 3,7 C 3,2 km/h (1 Bft)
13.12.2014 10:00 3,6 C 95 % 1009,9 hPa 0,0 l/m 0,3 km/h (0 Bft) W-NW 283 0 min 0,000 mm 0,0 UV-I 23 W/m 2,9 C 3,6 C 3,2 km/h (1 Bft)
13.12.2014 10:05 3,6 C 95 % 1009,9 hPa 0,2 l/m 0,1 km/h (0 Bft) W-NW 300 0 min 0,000 mm 0,0 UV-I 23 W/m 2,9 C 3,6 C 3,2 km/h (1 Bft)
13.12.2014 10:10 3,6 C 95 % 1009,9 hPa 0,0 l/m 0,0 km/h (0 Bft) W-NW 300 0 min 0,000 mm 0,0 UV-I 29 W/m 2,9 C 3,6 C 0,0 km/h (0 Bft)
13.12.2014 10:15 3,5 C 95 % 1009,9 hPa 0,0 l/m 0,0 km/h (0 Bft) W-NW 300 0 min 0,000 mm 0,0 UV-I 37 W/m 2,8 C 3,5 C 1,6 km/h (1 Bft)
13.12.2014 10:20 3,4 C 94 % 1010,0 hPa 0,0 l/m 0,1 km/h (0 Bft) W-NW 300 0 min 0,000 mm 0,0 UV-I 40 W/m 2,5 C 3,4 C 3,2 km/h (1 Bft)
13.12.2014 10:25 3,4 C 94 % 1010,0 hPa 0,0 l/m 0,4 km/h (0 Bft) W-NW 300 0 min 0,000 mm 0,0 UV-I 32 W/m 2,5 C 3,4 C 3,2 km/h (1 Bft)
13.12.2014 10:30 3,4 C 94 % 1010,2 hPa 0,0 l/m 0,3 km/h (0 Bft) W-NW 300 0 min 0,000 mm 0,0 UV-I 32 W/m 2,5 C 3,4 C 3,2 km/h (1 Bft)
13.12.2014 10:35 3,4 C 94 % 1010,3 hPa 0,0 l/m 0,3 km/h (0 Bft) W-NW 301 0 min 0,000 mm 0,0 UV-I 30 W/m 2,5 C 3,4 C 3,2 km/h (1 Bft)
13.12.2014 10:40 3,4 C 94 % 1010,3 hPa 0,0 l/m 1,2 km/h (1 Bft) W-NW 301 0 min 0,000 mm 0,0 UV-I 29 W/m 2,5 C 3,4 C 4,8 km/h (1 Bft)
13.12.2014 10:45 3,4 C 94 % 1010,5 hPa 0,0 l/m 0,8 km/h (0 Bft) W-NW 301 0 min 0,000 mm 0,0 UV-I 25 W/m 2,5 C 3,4 C 4,8 km/h (1 Bft)
13.12.2014 10:50 3,3 C 94 % 1010,5 hPa 0,2 l/m 1,0 km/h (0 Bft) NW 309 0 min 0,000 mm 0,0 UV-I 25 W/m 2,4 C 3,3 C 4,8 km/h (1 Bft)
13.12.2014 10:55 3,3 C 94 % 1010,7 hPa 0,0 l/m 0,9 km/h (0 Bft) W 281 0 min 0,000 mm 0,0 UV-I 25 W/m 2,4 C 3,3 C 4,8 km/h (1 Bft)
13.12.2014 11:00 3,3 C 94 % 1010,7 hPa 0,0 l/m 0,4 km/h (0 Bft) W-NW 298 0 min 0,000 mm 0,0 UV-I 24 W/m 2,4 C 3,3 C 4,8 km/h (1 Bft)
13.12.2014 11:05 3,3 C 94 % 1010,8 hPa 0,0 l/m 0,1 km/h (0 Bft) W-NW 298 0 min 0,000 mm 0,0 UV-I 23 W/m 2,4 C 3,3 C 1,6 km/h (1 Bft)
13.12.2014 11:10 3,3 C 94 % 1010,7 hPa 0,0 l/m 0,5 km/h (0 Bft) W-NW 298 0 min 0,000 mm 0,0 UV-I 25 W/m 2,4 C 3,3 C 3,2 km/h (1 Bft)
13.12.2014 11:15 3,2 C 94 % 1010,8 hPa 0,0 l/m 1,6 km/h (1 Bft) W-NW 302 0 min 0,000 mm 0,0 UV-I 26 W/m 2,3 C 3,2 C 4,8 km/h (1 Bft)
13.12.2014 11:20 3,1 C 94 % 1010,8 hPa 0,2 l/m 1,5 km/h (1 Bft) W-NW 294 0 min 0,000 mm 0,0 UV-I 30 W/m 2,2 C 3,1 C 6,4 km/h (2 Bft)
13.12.2014 11:25 3,0 C 94 % 1010,8 hPa 0,0 l/m 1,0 km/h (0 Bft) W-NW 293 0 min 0,000 mm 0,0 UV-I 33 W/m 2,1 C 3,0 C 6,4 km/h (2 Bft)
13.12.2014 11:30 3,0 C 94 % 1010,8 hPa 0,0 l/m 0,0 km/h (0 Bft) W-NW 293 0 min 0,000 mm 0,0 UV-I 32 W/m 2,1 C 3,0 C 1,6 km/h (1 Bft)
13.12.2014 11:35 3,0 C 94 % 1010,8 hPa 0,0 l/m 0,9 km/h (0 Bft) NW 309 0 min 0,000 mm 0,0 UV-I 33 W/m 2,1 C 3,0 C 4,8 km/h (1 Bft)
13.12.2014 11:40 2,9 C 94 % 1010,8 hPa 0,0 l/m 1,5 km/h (1 Bft) W-NW 297 0 min 0,000 mm 0,0 UV-I 34 W/m 2,0 C 2,9 C 6,4 km/h (2 Bft)
13.12.2014 11:45 2,9 C 94 % 1010,8 hPa 0,2 l/m 0,5 km/h (0 Bft) W-NW 298 0 min 0,000 mm 0,0 UV-I 37 W/m 2,0 C 2,9 C 4,8 km/h (1 Bft)
13.12.2014 11:50 2,8 C 94 % 1010,8 hPa 0,0 l/m 0,6 km/h (0 Bft) W-NW 298 0 min 0,000 mm 0,0 UV-I 38 W/m 1,9 C 2,8 C 3,2 km/h (1 Bft)
13.12.2014 11:55 2,8 C 94 % 1010,8 hPa 0,0 l/m 0,2 km/h (0 Bft) W-NW 298 0 min 0,000 mm 0,0 UV-I 38 W/m 1,9 C 2,8 C 3,2 km/h (1 Bft)
13.12.2014 12:00 2,8 C 94 % 1010,8 hPa 0,0 l/m 0,0 km/h (0 Bft) W-NW 298 0 min 0,000 mm 0,0 UV-I 36 W/m 1,9 C 2,8 C 0,0 km/h (0 Bft)
13.12.2014 12:05 2,8 C 94 % 1010,8 hPa 0,0 l/m 0,0 km/h (0 Bft) W-NW 298 0 min 0,025 mm 0,0 UV-I 35 W/m 1,9 C 2,8 C 1,6 km/h (1 Bft)
13.12.2014 12:10 2,8 C 94 % 1010,8 hPa 0,2 l/m 0,5 km/h (0 Bft) W-NW 298 0 min 0,000 mm 0,0 UV-I 36 W/m 1,9 C 2,8 C 3,2 km/h (1 Bft)
13.12.2014 12:15 2,8 C 94 % 1010,9 hPa 0,0 l/m 0,6 km/h (0 Bft) W-NW 298 0 min 0,000 mm 0,0 UV-I 39 W/m 1,9 C 2,8 C 3,2 km/h (1 Bft)
13.12.2014 12:20 2,8 C 94 % 1010,8 hPa 0,0 l/m 0,2 km/h (0 Bft) W-NW 298 0 min 0,000 mm 0,0 UV-I 44 W/m 1,9 C 2,8 C 3,2 km/h (1 Bft)
13.12.2014 12:25 2,7 C 94 % 1010,8 hPa 0,0 l/m 0,7 km/h (0 Bft) W-NW 298 0 min 0,000 mm 0,0 UV-I 46 W/m 1,8 C 2,7 C 3,2 km/h (1 Bft)
13.12.2014 12:30 2,7 C 94 % 1010,9 hPa 0,2 l/m 0,4 km/h (0 Bft) W-NW 298 0 min 0,000 mm 0,0 UV-I 46 W/m 1,8 C 2,7 C 3,2 km/h (1 Bft)
13.12.2014 12:35 2,7 C 94 % 1010,9 hPa 0,0 l/m 0,0 km/h (0 Bft) W-NW 298 0 min 0,000 mm 0,0 UV-I 44 W/m 1,8 C 2,7 C 1,6 km/h (1 Bft)
13.12.2014 12:40 2,7 C 94 % 1010,9 hPa 0,0 l/m 0,0 km/h (0 Bft) W-NW 298 0 min 0,000 mm 0,0 UV-I 39 W/m 1,8 C 2,7 C 1,6 km/h (1 Bft)
13.12.2014 12:45 2,7 C 94 % 1010,8 hPa 0,0 l/m 0,0 km/h (0 Bft) W-NW 298 0 min 0,000 mm 0,0 UV-I 41 W/m 1,8 C 2,7 C 1,6 km/h (1 Bft)
13.12.2014 12:50 2,7 C 94 % 1010,8 hPa 0,0 l/m 0,0 km/h (0 Bft) W-NW 298 0 min 0,000 mm 0,0 UV-I 43 W/m 1,8 C 2,7 C 0,0 km/h (0 Bft)
13.12.2014 12:55 2,7 C 94 % 1010,8 hPa 0,2 l/m 0,0 km/h (0 Bft) W-NW 298 0 min 0,000 mm 0,0 UV-I 44 W/m 1,8 C 2,7 C 1,6 km/h (1 Bft)
13.12.2014 13:00 2,6 C 94 % 1010,8 hPa 0,0 l/m 0,0 km/h (0 Bft) W-NW 298 0 min 0,026 mm 0,0 UV-I 42 W/m 1,7 C 2,6 C 1,6 km/h (1 Bft)
13.12.2014 13:05 2,7 C 94 % 1010,7 hPa 0,0 l/m 0,1 km/h (0 Bft) W-NW 298 0 min 0,000 mm 0,0 UV-I 42 W/m 1,8 C 2,7 C 1,6 km/h (1 Bft)
13.12.2014 13:10 2,7 C 94 % 1010,8 hPa 0,0 l/m 0,0 km/h (0 Bft) W-NW 298 0 min 0,000 mm 0,0 UV-I 46 W/m 1,8 C 2,7 C 1,6 km/h (1 Bft)
13.12.2014 13:15 2,7 C 94 % 1010,9 hPa 0,0 l/m 0,0 km/h (0 Bft) W-NW 298 0 min 0,000 mm 0,0 UV-I 45 W/m 1,8 C 2,7 C 1,6 km/h (1 Bft)
13.12.2014 13:20 2,7 C 94 % 1011,1 hPa 0,0 l/m 1,3 km/h (1 Bft) W 278 0 min 0,000 mm 0,0 UV-I 38 W/m 1,8 C 2,7 C 4,8 km/h (1 Bft)
13.12.2014 13:25 2,7 C 94 % 1011,1 hPa 0,0 l/m 0,8 km/h (0 Bft) W 269 0 min 0,000 mm 0,0 UV-I 38 W/m 1,8 C 2,7 C 3,2 km/h (1 Bft)
13.12.2014 13:30 2,7 C 95 % 1011,1 hPa 0,2 l/m 0,4 km/h (0 Bft) W 269 0 min 0,000 mm 0,0 UV-I 40 W/m 2,0 C 2,7 C 3,2 km/h (1 Bft)
13.12.2014 13:35 2,6 C 95 % 1011,1 hPa 0,0 l/m 1,4 km/h (1 Bft) W-SW 252 0 min 0,000 mm 0,0 UV-I 36 W/m 1,9 C 2,6 C 4,8 km/h (1 Bft)
13.12.2014 13:40 2,5 C 95 % 1011,1 hPa 0,0 l/m 1,6 km/h (1 Bft) W-SW 242 0 min 0,000 mm 0,0 UV-I 36 W/m 1,8 C 2,5 C 6,4 km/h (2 Bft)
13.12.2014 13:45 2,4 C 94 % 1011,2 hPa 0,0 l/m 1,0 km/h (0 Bft) W-SW 246 0 min 0,000 mm 0,0 UV-I 38 W/m 1,5 C 2,4 C 4,8 km/h (1 Bft)
13.12.2014 13:50 2,4 C 95 % 1011,1 hPa 0,0 l/m 0,5 km/h (0 Bft) W-SW 244 0 min 0,000 mm 0,0 UV-I 41 W/m 1,7 C 2,4 C 3,2 km/h (1 Bft)
13.12.2014 13:55 2,4 C 95 % 1011,1 hPa 0,0 l/m 0,6 km/h (0 Bft) W-SW 250 0 min 0,000 mm 0,0 UV-I 44 W/m 1,7 C 2,4 C 3,2 km/h (1 Bft)
13.12.2014 14:00 2,4 C 95 % 1011,1 hPa 0,0 l/m 0,6 km/h (0 Bft) W 263 0 min 0,000 mm 0,0 UV-I 41 W/m 1,7 C 2,4 C 3,2 km/h (1 Bft)
13.12.2014 14:05 2,4 C 95 % 1011,2 hPa 0,0 l/m 1,0 km/h (0 Bft) W-SW 257 0 min 0,025 mm 0,0 UV-I 34 W/m 1,7 C 2,4 C 3,2 km/h (1 Bft)
13.12.2014 14:10 2,4 C 95 % 1011,1 hPa 0,0 l/m 0,2 km/h (0 Bft) W-SW 256 0 min 0,000 mm 0,0 UV-I 28 W/m 1,7 C 2,4 C 1,6 km/h (1 Bft)
13.12.2014 14:15 2,4 C 95 % 1011,2 hPa 0,0 l/m 0,1 km/h (0 Bft) W-SW 256 0 min 0,000 mm 0,0 UV-I 26 W/m 1,7 C 2,4 C 3,2 km/h (1 Bft)
13.12.2014 14:20 2,4 C 95 % 1011,3 hPa 0,2 l/m 0,3 km/h (0 Bft) SW 234 0 min 0,000 mm 0,0 UV-I 21 W/m 1,7 C 2,4 C 1,6 km/h (1 Bft)
13.12.2014 14:25 2,4 C 95 % 1011,3 hPa 0,0 l/m 0,2 km/h (0 Bft) SW 234 0 min 0,000 mm 0,0 UV-I 20 W/m 1,7 C 2,4 C 1,6 km/h (1 Bft)
13.12.2014 14:30 2,4 C 95 % 1011,5 hPa 0,0 l/m 1,0 km/h (0 Bft) W-SW 244 0 min 0,000 mm 0,0 UV-I 20 W/m 1,7 C 2,4 C 4,8 km/h (1 Bft)
13.12.2014 14:35 2,4 C 95 % 1011,6 hPa 0,0 l/m 1,2 km/h (1 Bft) W-SW 250 0 min 0,000 mm 0,0 UV-I 19 W/m 1,7 C 2,4 C 4,8 km/h (1 Bft)
13.12.2014 14:40 2,4 C 95 % 1011,6 hPa 0,0 l/m 1,1 km/h (1 Bft) W 260 0 min 0,000 mm 0,0 UV-I 18 W/m 1,7 C 2,4 C 4,8 km/h (1 Bft)
13.12.2014 14:45 2,3 C 95 % 1011,6 hPa 0,0 l/m 0,9 km/h (0 Bft) W 266 0 min 0,000 mm 0,0 UV-I 15 W/m 1,6 C 2,3 C 3,2 km/h (1 Bft)
13.12.2014 14:50 2,3 C 95 % 1011,6 hPa 0,2 l/m 0,1 km/h (0 Bft) W 266 0 min 0,000 mm 0,0 UV-I 15 W/m 1,6 C 2,3 C 1,6 km/h (1 Bft)
13.12.2014 14:55 2,2 C 95 % 1011,6 hPa 0,0 l/m 0,5 km/h (0 Bft) W 266 0 min 0,000 mm 0,0 UV-I 15 W/m 1,5 C 2,2 C 3,2 km/h (1 Bft)
13.12.2014 15:00 2,2 C 95 % 1011,6 hPa 0,0 l/m 0,1 km/h (0 Bft) W 266 0 min 0,000 mm 0,0 UV-I 13 W/m 1,5 C 2,2 C 1,6 km/h (1 Bft)
13.12.2014 15:05 2,2 C 95 % 1011,7 hPa 0,0 l/m 0,2 km/h (0 Bft) W 266 0 min 0,000 mm 0,0 UV-I 11 W/m 1,5 C 2,2 C 1,6 km/h (1 Bft)
13.12.2014 15:10 2,1 C 95 % 1011,7 hPa 0,0 l/m 0,0 km/h (0 Bft) W 266 0 min 0,000 mm 0,0 UV-I 11 W/m 1,4 C 2,1 C 0,0 km/h (0 Bft)
13.12.2014 15:15 2,1 C 95 % 1011,6 hPa 0,2 l/m 0,0 km/h (0 Bft) W 266 0 min 0,000 mm 0,0 UV-I 12 W/m 1,4 C 2,1 C 0,0 km/h (0 Bft)
13.12.2014 15:20 2,0 C 95 % 1011,8 hPa 0,0 l/m 0,0 km/h (0 Bft) W 266 0 min 0,000 mm 0,0 UV-I 10 W/m 1,3 C 2,0 C 1,6 km/h (1 Bft)
13.12.2014 15:25 2,0 C 95 % 1011,9 hPa 0,0 l/m 0,0 km/h (0 Bft) W 266 0 min 0,000 mm 0,0 UV-I 8 W/m 1,3 C 2,0 C 0,0 km/h (0 Bft)
13.12.2014 15:30 2,1 C 95 % 1011,9 hPa 0,0 l/m 0,0 km/h (0 Bft) W 266 0 min 0,000 mm 0,0 UV-I 6 W/m 1,4 C 2,1 C 1,6 km/h (1 Bft)
13.12.2014 15:35 2,0 C 95 % 1011,8 hPa 0,0 l/m 0,0 km/h (0 Bft) W 266 0 min 0,000 mm 0,0 UV-I 7 W/m 1,3 C 2,0 C 0,0 km/h (0 Bft)
13.12.2014 15:40 1,9 C 95 % 1011,9 hPa 0,0 l/m 0,0 km/h (0 Bft) W 266 0 min 0,000 mm 0,0 UV-I 3 W/m 1,2 C 1,9 C 0,0 km/h (0 Bft)
13.12.2014 15:45 1,9 C 95 % 1011,8 hPa 0,2 l/m 0,0 km/h (0 Bft) W 266 0 min 0,000 mm 0,0 UV-I 0 W/m 1,2 C 1,9 C 0,0 km/h (0 Bft)
13.12.2014 15:50 1,9 C 95 % 1011,8 hPa 0,0 l/m 0,0 km/h (0 Bft) W 266 0 min 0,000 mm 0,0 UV-I 0 W/m 1,2 C 1,9 C 0,0 km/h (0 Bft)
13.12.2014 15:55 1,9 C 95 % 1011,8 hPa 0,0 l/m 0,0 km/h (0 Bft) W 266 0 min 0,000 mm 0,0 UV-I 0 W/m 1,2 C 1,9 C 0,0 km/h (0 Bft)
13.12.2014 16:00 1,9 C 95 % 1012,0 hPa 0,0 l/m 0,0 km/h (0 Bft) W 266 0 min 0,000 mm 0,0 UV-I 0 W/m 1,2 C 1,9 C 0,0 km/h (0 Bft)
13.12.2014 16:05 1,9 C 96 % 1012,1 hPa 0,0 l/m 0,0 km/h (0 Bft) W 266 0 min 0,000 mm 0,0 UV-I 0 W/m 1,3 C 1,9 C 0,0 km/h (0 Bft)
13.12.2014 16:10 1,9 C 96 % 1012,1 hPa 0,0 l/m 0,0 km/h (0 Bft) W 266 0 min 0,000 mm 0,0 UV-I 0 W/m 1,3 C 1,9 C 0,0 km/h (0 Bft)
13.12.2014 16:15 2,0 C 96 % 1012,1 hPa 0,0 l/m 0,0 km/h (0 Bft) W 266 0 min 0,000 mm 0,0 UV-I 0 W/m 1,4 C 2,0 C 0,0 km/h (0 Bft)
13.12.2014 16:20 2,1 C 96 % 1012,2 hPa 0,0 l/m 0,0 km/h (0 Bft) W 266 0 min 0,000 mm 0,0 UV-I 0 W/m 1,5 C 2,1 C 0,0 km/h (0 Bft)
13.12.2014 16:25 2,1 C 96 % 1012,3 hPa 0,0 l/m 0,0 km/h (0 Bft) W 266 0 min 0,000 mm 0,0 UV-I 0 W/m 1,5 C 2,1 C 0,0 km/h (0 Bft)
13.12.2014 16:30 2,1 C 96 % 1012,3 hPa 0,0 l/m 0,0 km/h (0 Bft) W 266 0 min 0,000 mm 0,0 UV-I 0 W/m 1,5 C 2,1 C 0,0 km/h (0 Bft)
13.12.2014 16:35 2,1 C 96 % 1012,3 hPa 0,0 l/m 0,0 km/h (0 Bft) W 266 0 min 0,000 mm 0,0 UV-I 0 W/m 1,5 C 2,1 C 0,0 km/h (0 Bft)
13.12.2014 16:40 2,1 C 96 % 1012,3 hPa 0,0 l/m 0,0 km/h (0 Bft) W 266 0 min 0,000 mm 0,0 UV-I 0 W/m 1,5 C 2,1 C 0,0 km/h (0 Bft)
13.12.2014 16:45 2,1 C 96 % 1012,5 hPa 0,2 l/m 0,0 km/h (0 Bft) W 266 0 min 0,000 mm 0,0 UV-I 0 W/m 1,5 C 2,1 C 0,0 km/h (0 Bft)
13.12.2014 16:50 2,1 C 95 % 1012,5 hPa 0,0 l/m 0,0 km/h (0 Bft) W 266 0 min 0,000 mm 0,0 UV-I 0 W/m 1,4 C 2,1 C 0,0 km/h (0 Bft)
13.12.2014 16:55 2,0 C 95 % 1012,5 hPa 0,0 l/m 0,0 km/h (0 Bft) W 266 0 min 0,000 mm 0,0 UV-I 0 W/m 1,3 C 2,0 C 0,0 km/h (0 Bft)
13.12.2014 17:00 1,9 C 95 % 1012,6 hPa 0,0 l/m 0,0 km/h (0 Bft) W 266 0 min 0,000 mm 0,0 UV-I 0 W/m 1,2 C 1,9 C 1,6 km/h (1 Bft)
13.12.2014 17:05 1,9 C 95 % 1012,7 hPa 0,0 l/m 0,1 km/h (0 Bft) W 266 0 min 0,000 mm 0,0 UV-I 0 W/m 1,2 C 1,9 C 1,6 km/h (1 Bft)
13.12.2014 17:10 1,9 C 96 % 1012,8 hPa 0,0 l/m 0,0 km/h (0 Bft) W 266 0 min 0,000 mm 0,0 UV-I 0 W/m 1,3 C 1,9 C 1,6 km/h (1 Bft)
13.12.2014 17:15 1,8 C 95 % 1012,9 hPa 0,0 l/m 0,2 km/h (0 Bft) W 266 0 min 0,000 mm 0,0 UV-I 0 W/m 1,1 C 1,8 C 3,2 km/h (1 Bft)
13.12.2014 17:20 1,8 C 95 % 1013,0 hPa 0,2 l/m 0,3 km/h (0 Bft) W 266 0 min 0,000 mm 0,0 UV-I 0 W/m 1,1 C 1,8 C 1,6 km/h (1 Bft)
13.12.2014 17:25 1,8 C 95 % 1013,0 hPa 0,0 l/m 0,6 km/h (0 Bft) W 266 0 min 0,000 mm 0,0 UV-I 0 W/m 1,1 C 1,8 C 3,2 km/h (1 Bft)
13.12.2014 17:30 1,8 C 96 % 1013,0 hPa 0,0 l/m 0,4 km/h (0 Bft) W 266 0 min 0,000 mm 0,0 UV-I 0 W/m 1,2 C 1,8 C 3,2 km/h (1 Bft)
13.12.2014 17:35 1,8 C 96 % 1013,1 hPa 0,0 l/m 0,1 km/h (0 Bft) W 266 0 min 0,000 mm 0,0 UV-I 0 W/m 1,2 C 1,8 C 1,6 km/h (1 Bft)
13.12.2014 17:40 1,8 C 96 % 1013,2 hPa 0,0 l/m 0,0 km/h (0 Bft) W 266 0 min 0,000 mm 0,0 UV-I 0 W/m 1,2 C 1,8 C 1,6 km/h (1 Bft)
13.12.2014 17:45 1,7 C 96 % 1013,1 hPa 0,0 l/m 0,0 km/h (0 Bft) W 266 0 min 0,000 mm 0,0 UV-I 0 W/m 1,1 C 1,7 C 1,6 km/h (1 Bft)
13.12.2014 17:50 1,6 C 96 % 1013,1 hPa 0,0 l/m 0,0 km/h (0 Bft) W 266 0 min 0,000 mm 0,0 UV-I 0 W/m 1,0 C 1,6 C 0,0 km/h (0 Bft)
13.12.2014 17:55 1,5 C 96 % 1013,0 hPa 0,0 l/m 0,0 km/h (0 Bft) W 266 0 min 0,000 mm 0,0 UV-I 0 W/m 0,9 C 1,5 C 1,6 km/h (1 Bft)
13.12.2014 18:00 1,4 C 95 % 1013,0 hPa 0,0 l/m 0,0 km/h (0 Bft) W 266 0 min 0,000 mm 0,0 UV-I 0 W/m 0,7 C 1,4 C 0,0 km/h (0 Bft)
13.12.2014 18:05 1,4 C 96 % 1013,0 hPa 0,2 l/m 0,0 km/h (0 Bft) W 266 0 min 0,000 mm 0,0 UV-I 0 W/m 0,8 C 1,4 C 0,0 km/h (0 Bft)
13.12.2014 18:10 1,4 C 96 % 1013,0 hPa 0,0 l/m 0,0 km/h (0 Bft) W 266 0 min 0,000 mm 0,0 UV-I 0 W/m 0,8 C 1,4 C 0,0 km/h (0 Bft)
13.12.2014 18:15 1,4 C 96 % 1013,1 hPa 0,0 l/m 0,0 km/h (0 Bft) W 266 0 min 0,000 mm 0,0 UV-I 0 W/m 0,8 C 1,4 C 0,0 km/h (0 Bft)
13.12.2014 18:20 1,4 C 96 % 1013,1 hPa 0,0 l/m 0,0 km/h (0 Bft) W 266 0 min 0,000 mm 0,0 UV-I 0 W/m 0,8 C 1,4 C 0,0 km/h (0 Bft)
13.12.2014 18:25 1,4 C 96 % 1013,1 hPa 0,0 l/m 0,0 km/h (0 Bft) W 266 0 min 0,000 mm 0,0 UV-I 0 W/m 0,8 C 1,4 C 0,0 km/h (0 Bft)
13.12.2014 18:30 1,4 C 96 % 1013,2 hPa 0,0 l/m 0,0 km/h (0 Bft) W 266 0 min 0,000 mm 0,0 UV-I 0 W/m 0,8 C 1,4 C 0,0 km/h (0 Bft)
13.12.2014 18:35 1,3 C 96 % 1013,3 hPa 0,0 l/m 0,0 km/h (0 Bft) W 266 0 min 0,000 mm 0,0 UV-I 0 W/m 0,7 C 1,3 C 0,0 km/h (0 Bft)
13.12.2014 18:40 1,3 C 96 % 1013,4 hPa 0,0 l/m 0,0 km/h (0 Bft) W 266 0 min 0,000 mm 0,0 UV-I 0 W/m 0,7 C 1,3 C 0,0 km/h (0 Bft)
13.12.2014 18:45 1,3 C 96 % 1013,4 hPa 0,0 l/m 0,0 km/h (0 Bft) W 266 0 min 0,000 mm 0,0 UV-I 0 W/m 0,7 C 1,3 C 0,0 km/h (0 Bft)
13.12.2014 18:50 1,3 C 96 % 1013,4 hPa 0,0 l/m 0,0 km/h (0 Bft) W 266 0 min 0,000 mm 0,0 UV-I 0 W/m 0,7 C 1,3 C 0,0 km/h (0 Bft)
13.12.2014 18:55 1,3 C 96 % 1013,3 hPa 0,0 l/m 0,0 km/h (0 Bft) W 266 0 min 0,000 mm 0,0 UV-I 0 W/m 0,7 C 1,3 C 0,0 km/h (0 Bft)
13.12.2014 19:00 1,3 C 96 % 1013,4 hPa 0,0 l/m 0,0 km/h (0 Bft) W 266 0 min 0,000 mm 0,0 UV-I 0 W/m 0,7 C 1,3 C 0,0 km/h (0 Bft)
13.12.2014 19:05 1,3 C 96 % 1013,5 hPa 0,0 l/m 0,0 km/h (0 Bft) W 266 0 min 0,000 mm 0,0 UV-I 0 W/m 0,7 C 1,3 C 0,0 km/h (0 Bft)
13.12.2014 19:10 1,2 C 96 % 1013,5 hPa 0,2 l/m 0,0 km/h (0 Bft) W 266 0 min 0,000 mm 0,0 UV-I 0 W/m 0,6 C 1,2 C 0,0 km/h (0 Bft)
13.12.2014 19:15 1,2 C 96 % 1013,6 hPa 0,0 l/m 0,0 km/h (0 Bft) W 266 0 min 0,000 mm 0,0 UV-I 0 W/m 0,6 C 1,2 C 0,0 km/h (0 Bft)
13.12.2014 19:20 1,2 C 96 % 1013,6 hPa 0,0 l/m 0,0 km/h (0 Bft) W 266 0 min 0,000 mm 0,0 UV-I 0 W/m 0,6 C 1,2 C 1,6 km/h (1 Bft)
13.12.2014 19:25 1,1 C 96 % 1013,5 hPa 0,0 l/m 0,0 km/h (0 Bft) W 266 0 min 0,000 mm 0,0 UV-I 0 W/m 0,5 C 1,1 C 0,0 km/h (0 Bft)
13.12.2014 19:30 1,1 C 96 % 1013,6 hPa 0,0 l/m 0,0 km/h (0 Bft) W 266 0 min 0,000 mm 0,0 UV-I 0 W/m 0,5 C 1,1 C 0,0 km/h (0 Bft)
13.12.2014 19:35 1,1 C 96 % 1013,7 hPa 0,0 l/m 0,0 km/h (0 Bft) W 266 0 min 0,000 mm 0,0 UV-I 0 W/m 0,5 C 1,1 C 0,0 km/h (0 Bft)
13.12.2014 19:40 1,1 C 96 % 1013,7 hPa 0,0 l/m 0,0 km/h (0 Bft) W 266 0 min 0,000 mm 0,0 UV-I 0 W/m 0,5 C 1,1 C 0,0 km/h (0 Bft)
13.12.2014 19:45 1,1 C 96 % 1013,7 hPa 0,0 l/m 0,0 km/h (0 Bft) W 266 0 min 0,000 mm 0,0 UV-I 0 W/m 0,5 C 1,1 C 0,0 km/h (0 Bft)
13.12.2014 19:50 1,0 C 96 % 1013,7 hPa 0,0 l/m 0,0 km/h (0 Bft) W 266 0 min 0,000 mm 0,0 UV-I 0 W/m 0,4 C 1,0 C 0,0 km/h (0 Bft)
13.12.2014 19:55 1,0 C 96 % 1013,7 hPa 0,0 l/m 0,0 km/h (0 Bft) W 266 0 min 0,000 mm 0,0 UV-I 0 W/m 0,4 C 1,0 C 0,0 km/h (0 Bft)
13.12.2014 20:00 1,0 C 96 % 1013,6 hPa 0,0 l/m 0,0 km/h (0 Bft) W 266 0 min 0,000 mm 0,0 UV-I 0 W/m 0,4 C 1,0 C 0,0 km/h (0 Bft)
13.12.2014 20:05 0,9 C 96 % 1013,6 hPa 0,0 l/m 0,0 km/h (0 Bft) W 266 0 min 0,000 mm 0,0 UV-I 0 W/m 0,3 C 0,9 C 0,0 km/h (0 Bft)
13.12.2014 20:10 1,0 C 96 % 1013,7 hPa 0,0 l/m 0,0 km/h (0 Bft) W 266 0 min 0,000 mm 0,0 UV-I 0 W/m 0,4 C 1,0 C 0,0 km/h (0 Bft)
13.12.2014 20:15 1,0 C 96 % 1013,5 hPa 0,0 l/m 0,0 km/h (0 Bft) W 266 0 min 0,000 mm 0,0 UV-I 0 W/m 0,4 C 1,0 C 0,0 km/h (0 Bft)
13.12.2014 20:20 1,0 C 96 % 1013,5 hPa 0,0 l/m 0,0 km/h (0 Bft) W 266 0 min 0,000 mm 0,0 UV-I 0 W/m 0,4 C 1,0 C 0,0 km/h (0 Bft)
13.12.2014 20:25 0,9 C 96 % 1013,5 hPa 0,0 l/m 0,0 km/h (0 Bft) W 266 0 min 0,000 mm 0,0 UV-I 0 W/m 0,3 C 0,9 C 0,0 km/h (0 Bft)
13.12.2014 20:30 1,0 C 96 % 1013,6 hPa 0,0 l/m 0,0 km/h (0 Bft) W 266 0 min 0,000 mm 0,0 UV-I 0 W/m 0,4 C 1,0 C 0,0 km/h (0 Bft)
13.12.2014 20:35 1,0 C 96 % 1013,6 hPa 0,0 l/m 0,0 km/h (0 Bft) W 266 0 min 0,000 mm 0,0 UV-I 0 W/m 0,4 C 1,0 C 0,0 km/h (0 Bft)
13.12.2014 20:40 1,0 C 96 % 1013,6 hPa 0,0 l/m 0,0 km/h (0 Bft) W 266 0 min 0,000 mm 0,0 UV-I 0 W/m 0,4 C 1,0 C 0,0 km/h (0 Bft)
13.12.2014 20:45 1,0 C 96 % 1013,6 hPa 0,0 l/m 0,0 km/h (0 Bft) W 266 0 min 0,000 mm 0,0 UV-I 0 W/m 0,4 C 1,0 C 0,0 km/h (0 Bft)
13.12.2014 20:50 1,0 C 96 % 1013,6 hPa 0,0 l/m 0,0 km/h (0 Bft) W 266 0 min 0,000 mm 0,0 UV-I 0 W/m 0,4 C 1,0 C 0,0 km/h (0 Bft)
13.12.2014 20:55 1,0 C 96 % 1013,6 hPa 0,0 l/m 0,0 km/h (0 Bft) W 266 0 min 0,000 mm 0,0 UV-I 0 W/m 0,4 C 1,0 C 0,0 km/h (0 Bft)
13.12.2014 21:00 0,9 C 96 % 1013,6 hPa 0,0 l/m 0,0 km/h (0 Bft) W 266 0 min 0,000 mm 0,0 UV-I 0 W/m 0,3 C 0,9 C 0,0 km/h (0 Bft)
13.12.2014 21:05 0,9 C 96 % 1013,6 hPa 0,0 l/m 0,0 km/h (0 Bft) W 266 0 min 0,000 mm 0,0 UV-I 0 W/m 0,3 C 0,9 C 1,6 km/h (1 Bft)
13.12.2014 21:10 0,9 C 96 % 1013,6 hPa 0,0 l/m 0,0 km/h (0 Bft) W 266 0 min 0,000 mm 0,0 UV-I 0 W/m 0,3 C 0,9 C 0,0 km/h (0 Bft)
13.12.2014 21:15 0,9 C 96 % 1013,8 hPa 0,0 l/m 0,0 km/h (0 Bft) W 266 0 min 0,000 mm 0,0 UV-I 0 W/m 0,3 C 0,9 C 0,0 km/h (0 Bft)
13.12.2014 21:20 0,9 C 96 % 1013,7 hPa 0,0 l/m 0,0 km/h (0 Bft) W 266 0 min 0,000 mm 0,0 UV-I 0 W/m 0,3 C 0,9 C 1,6 km/h (1 Bft)
13.12.2014 21:25 0,9 C 96 % 1013,7 hPa 0,0 l/m 0,0 km/h (0 Bft) W 266 0 min 0,000 mm 0,0 UV-I 0 W/m 0,3 C 0,9 C 0,0 km/h (0 Bft)
13.12.2014 21:30 0,9 C 96 % 1013,7 hPa 0,0 l/m 0,0 km/h (0 Bft) W 266 0 min 0,000 mm 0,0 UV-I 0 W/m 0,3 C 0,9 C 0,0 km/h (0 Bft)
13.12.2014 21:35 0,9 C 96 % 1013,8 hPa 0,0 l/m 0,0 km/h (0 Bft) W 266 0 min 0,000 mm 0,0 UV-I 0 W/m 0,3 C 0,9 C 0,0 km/h (0 Bft)
13.12.2014 21:40 0,9 C 96 % 1013,7 hPa 0,0 l/m 0,0 km/h (0 Bft) W 266 0 min 0,000 mm 0,0 UV-I 0 W/m 0,3 C 0,9 C 0,0 km/h (0 Bft)
13.12.2014 21:45 0,9 C 96 % 1013,7 hPa 0,0 l/m 0,0 km/h (0 Bft) W 266 0 min 0,000 mm 0,0 UV-I 0 W/m 0,3 C 0,9 C 0,0 km/h (0 Bft)
13.12.2014 21:50 0,9 C 96 % 1013,6 hPa 0,0 l/m 0,0 km/h (0 Bft) W 266 0 min 0,000 mm 0,0 UV-I 0 W/m 0,3 C 0,9 C 0,0 km/h (0 Bft)
13.12.2014 21:55 0,9 C 96 % 1013,7 hPa 0,0 l/m 0,0 km/h (0 Bft) W 266 0 min 0,000 mm 0,0 UV-I 0 W/m 0,3 C 0,9 C 0,0 km/h (0 Bft)
13.12.2014 22:00 0,9 C 96 % 1013,8 hPa 0,2 l/m 0,0 km/h (0 Bft) W 266 0 min 0,000 mm 0,0 UV-I 0 W/m 0,3 C 0,9 C 0,0 km/h (0 Bft)
13.12.2014 22:05 0,9 C 96 % 1013,9 hPa 0,0 l/m 0,0 km/h (0 Bft) W 266 0 min 0,000 mm 0,0 UV-I 0 W/m 0,3 C 0,9 C 0,0 km/h (0 Bft)
13.12.2014 22:10 0,9 C 96 % 1014,0 hPa 0,0 l/m 0,0 km/h (0 Bft) W 266 0 min 0,000 mm 0,0 UV-I 0 W/m 0,3 C 0,9 C 0,0 km/h (0 Bft)
13.12.2014 22:15 1,0 C 96 % 1014,0 hPa 0,0 l/m 0,0 km/h (0 Bft) W 266 0 min 0,000 mm 0,0 UV-I 0 W/m 0,4 C 1,0 C 0,0 km/h (0 Bft)
13.12.2014 22:20 1,0 C 96 % 1014,0 hPa 0,0 l/m 0,0 km/h (0 Bft) W 266 0 min 0,000 mm 0,0 UV-I 0 W/m 0,4 C 1,0 C 1,6 km/h (1 Bft)
13.12.2014 22:25 0,9 C 96 % 1014,1 hPa 0,0 l/m 0,0 km/h (0 Bft) W 266 0 min 0,000 mm 0,0 UV-I 0 W/m 0,3 C 0,9 C 0,0 km/h (0 Bft)
13.12.2014 22:30 0,9 C 96 % 1014,1 hPa 0,0 l/m 0,0 km/h (0 Bft) W 266 0 min 0,000 mm 0,0 UV-I 0 W/m 0,3 C 0,9 C 0,0 km/h (0 Bft)
13.12.2014 22:35 0,9 C 96 % 1014,0 hPa 0,0 l/m 0,0 km/h (0 Bft) W 266 0 min 0,000 mm 0,0 UV-I 0 W/m 0,3 C 0,9 C 0,0 km/h (0 Bft)
13.12.2014 22:40 1,0 C 96 % 1014,1 hPa 0,0 l/m 0,0 km/h (0 Bft) W 266 0 min 0,000 mm 0,0 UV-I 0 W/m 0,4 C 1,0 C 0,0 km/h (0 Bft)
13.12.2014 22:45 1,0 C 96 % 1014,1 hPa 0,0 l/m 0,0 km/h (0 Bft) W 266 0 min 0,000 mm 0,0 UV-I 0 W/m 0,4 C 1,0 C 0,0 km/h (0 Bft)
13.12.2014 22:50 1,1 C 96 % 1014,2 hPa 0,0 l/m 0,0 km/h (0 Bft) W 266 0 min 0,000 mm 0,0 UV-I 0 W/m 0,5 C 1,1 C 0,0 km/h (0 Bft)
13.12.2014 22:55 1,1 C 96 % 1014,2 hPa 0,0 l/m 0,0 km/h (0 Bft) W 266 0 min 0,000 mm 0,0 UV-I 0 W/m 0,5 C 1,1 C 0,0 km/h (0 Bft)
13.12.2014 23:00 1,1 C 96 % 1014,2 hPa 0,0 l/m 0,0 km/h (0 Bft) W 266 0 min 0,000 mm 0,0 UV-I 0 W/m 0,5 C 1,1 C 0,0 km/h (0 Bft)
13.12.2014 23:05 1,1 C 96 % 1014,3 hPa 0,0 l/m 0,0 km/h (0 Bft) W 266 0 min 0,000 mm 0,0 UV-I 0 W/m 0,5 C 1,1 C 0,0 km/h (0 Bft)
13.12.2014 23:10 1,1 C 96 % 1014,2 hPa 0,0 l/m 0,0 km/h (0 Bft) W 266 0 min 0,000 mm 0,0 UV-I 0 W/m 0,5 C 1,1 C 0,0 km/h (0 Bft)
13.12.2014 23:15 1,1 C 96 % 1014,3 hPa 0,0 l/m 0,0 km/h (0 Bft) W 266 0 min 0,000 mm 0,0 UV-I 0 W/m 0,5 C 1,1 C 1,6 km/h (1 Bft)
13.12.2014 23:20 1,1 C 96 % 1014,2 hPa 0,0 l/m 0,0 km/h (0 Bft) W 266 0 min 0,000 mm 0,0 UV-I 0 W/m 0,5 C 1,1 C 0,0 km/h (0 Bft)
13.12.2014 23:25 1,1 C 96 % 1014,1 hPa 0,0 l/m 0,0 km/h (0 Bft) W 266 0 min 0,000 mm 0,0 UV-I 0 W/m 0,5 C 1,1 C 1,6 km/h (1 Bft)
13.12.2014 23:30 1,1 C 96 % 1014,0 hPa 0,0 l/m 0,0 km/h (0 Bft) W 266 0 min 0,000 mm 0,0 UV-I 0 W/m 0,5 C 1,1 C 1,6 km/h (1 Bft)
13.12.2014 23:35 1,1 C 96 % 1014,2 hPa 0,0 l/m 0,0 km/h (0 Bft) W 266 0 min 0,000 mm 0,0 UV-I 0 W/m 0,5 C 1,1 C 0,0 km/h (0 Bft)
13.12.2014 23:40 1,1 C 96 % 1014,1 hPa 0,0 l/m 0,0 km/h (0 Bft) W 266 0 min 0,000 mm 0,0 UV-I 0 W/m 0,5 C 1,1 C 0,0 km/h (0 Bft)
13.12.2014 23:45 1,2 C 96 % 1014,1 hPa 0,0 l/m 0,0 km/h (0 Bft) W 266 0 min 0,000 mm 0,0 UV-I 0 W/m 0,6 C 1,2 C 0,0 km/h (0 Bft)
13.12.2014 23:50 1,2 C 96 % 1014,1 hPa 0,0 l/m 0,0 km/h (0 Bft) W 266 0 min 0,000 mm 0,0 UV-I 0 W/m 0,6 C 1,2 C 0,0 km/h (0 Bft)
13.12.2014 23:55 1,2 C 96 % 1014,2 hPa 0,0 l/m 0,0 km/h (0 Bft) W 266 0 min 0,000 mm 0,0 UV-I 0 W/m 0,6 C 1,2 C 0,0 km/h (0 Bft)
_ Min-Zeit 20:00 01:10 00:00 - 06:55 - - - - - - 20:05 20:05 06:55
Minimum _ 0,9 C 92 % 1004,0 hPa - 0,0 km/h (0 Bft) - - - - - - 0,3 C 0,9 C 0,0 km/h (0 Bft)
_ Max-Zeit 00:00 16:05 23:05 00:05 01:00 - - 00:00 13:00 00:00 12:25 00:00 00:00 01:00
Maximum _ 5,8 C 96 % 1014,3 hPa 0,2 l/m 7,7 km/h
SW (2 Bft)
- - 0 min 0,026 mm 0,0 UV-I 46 W/m 4,8 C 5,8 C 16,1 km/h
W-NW (3 Bft)
Durchschnitt _ 3,0 C 95 % 1010,2 hPa #7,0 l/m 1,1 km/h (1 Bft) W - #0 min. #0,076 mm 0,0 UV-I 27 W/m 2,2 C 3,0 C 3,4 km/h (1 Bft)